Veribest, TX

7:31 AM CST on February 12, 2016 (GMT -0600)
San Angelo Regional-Mathis

Weather History for KSJT - April, 2012

Change the Weather History Date:

Wednesday, April 11, 2012

  Actual Average Record
Temperature  
Mean Temperature 71 °F 65 °F  
Max Temperature 82 °F 79 °F 97 °F (1993)
Min Temperature 59 °F 51 °F 28 °F (1913)
Degree Days  
Heating Degree Days 0 4  
Month to date heating degree days 1 48  
Since 1 July heating degree days 1875 2266  
Cooling Degree Days 6 3  
Month to date cooling degree days 70 28  
Year to date cooling degree days 148 66  
Growing Degree Days 20 (Base 50)    
Moisture  
Dew Point 57 °F    
Average Humidity 65    
Maximum Humidity 84    
Minimum Humidity 45    
Precipitation  
Precipitation T in 0.04 in 2.07 in (1969)
Month to date precipitation 0.54 0.47  
Year to date precipitation 8.03 4.25  
Snow  
Snow 0.00 in 0.00 in 0.00 in (2002)
Month to date snowfall T 0.0  
Since 1 July snowfall 3.1 2.2  
Snow Depth 0.00 in    
Sea Level Pressure  
Sea Level Pressure 30.01 in    
Wind  
Wind Speed 7 mph (SSE)    
Max Wind Speed 20 mph    
Max Gust Speed 24 mph    
Visibility 10 miles    
Events Rain    
T = Trace of Precipitation, MM = Missing Value Source: NWS Daily Summary

Daily Weather History Graph

Daily Weather History Graph

Search for Another Location

Airport or City:

Trip Planner

Search our weather history database for the weather conditions in past years. The results will help you decide how hot, cold, wet, or windy it might be!

Date:

Astronomy

Apr. 11, 2012 Rise Set
Actual Time 7:17 AM CDT 8:08 PM CDT
Civil Twilight 6:53 AM CDT 8:33 PM CDT
Nautical Twilight 6:23 AM CDT 9:02 PM CDT
Astronomical Twilight 5:54 AM CDT 9:32 PM CDT
Moon 12:50 AM CDT (4/11) 11:22 AM CDT (4/11)
Length of Visible Light 13h 40m
Length of Day
12h 50m
Waning Gibbous, 69% of the Moon is Illuminated
Apr 11
Waning Gibbous
Apr 13
Last Quarter
Apr 21
New
Apr 29
First Quarter
May 5
Full

Hourly Weather History & Observations

Time (CDT) Temp. Heat Index Dew Point Humidity Pressure Visibility Wind Dir Wind Speed Gust Speed Precip Events Conditions
12:51 AM 62.6 °F - 51.8 °F 68% 30.07 in 10.0 mi SSE 5.8 mph - N/A   Clear
1:51 AM 60.1 °F - 52.0 °F 75% 30.01 in 10.0 mi SSE 5.8 mph - N/A   Clear
2:51 AM 61.0 °F - 53.1 °F 75% 30.01 in 10.0 mi South 4.6 mph - N/A   Clear
3:51 AM 61.0 °F - 53.1 °F 75% 30.00 in 10.0 mi SSE 4.6 mph - N/A   Clear
4:51 AM 62.1 °F - 55.0 °F 78% 30.00 in 10.0 mi SSE 3.5 mph - N/A   Clear
5:51 AM 62.1 °F - 55.0 °F 78% 30.02 in 10.0 mi ESE 3.5 mph - N/A   Mostly Cloudy
6:51 AM 60.1 °F - 54.0 °F 80% 30.04 in 10.0 mi SE 3.5 mph - N/A   Partly Cloudy
7:51 AM 60.8 °F - 55.4 °F 82% 30.10 in 10.0 mi SE 4.6 mph - N/A   Clear
8:51 AM 64.0 °F - 55.9 °F 75% 30.06 in 10.0 mi SSE 5.8 mph - N/A   Clear
9:51 AM 66.9 °F - 55.9 °F 68% 30.09 in 10.0 mi SSW 12.7 mph - N/A   Clear
10:51 AM 69.1 °F - 57.0 °F 65% 30.09 in 10.0 mi South 8.1 mph - N/A   Scattered Clouds
11:03 AM 71.6 °F - 59.0 °F 64% 30.13 in 10.0 mi South 8.1 mph - N/A   Mostly Cloudy
11:44 AM 71.6 °F - 59.0 °F 64% 30.11 in 10.0 mi South 11.5 mph - N/A   Partly Cloudy
11:51 AM 73.0 °F - 59.0 °F 61% 30.06 in 10.0 mi South 8.1 mph - N/A   Partly Cloudy
12:51 PM 77.0 °F - 59.0 °F 54% 30.04 in 10.0 mi South 12.7 mph - N/A   Clear
1:51 PM 80.1 °F 80.7 °F 59.0 °F 48% 29.99 in 10.0 mi ESE 10.4 mph 17.3 mph N/A   Clear
2:51 PM 81.0 °F 81.0 °F 57.0 °F 44% 29.97 in 10.0 mi ESE 9.2 mph 18.4 mph N/A   Mostly Cloudy
3:51 PM 80.1 °F 80.6 °F 57.9 °F 47% 29.94 in 10.0 mi SSE 10.4 mph 21.9 mph N/A   Scattered Clouds
4:51 PM 79.0 °F - 57.9 °F 48% 29.94 in 10.0 mi South 18.4 mph 23.0 mph N/A   Scattered Clouds
5:51 PM 75.0 °F - 57.0 °F 53% 29.94 in 10.0 mi SSE 15.0 mph - N/A   Clear
6:51 PM 73.0 °F - 57.0 °F 57% 29.87 in 10.0 mi SE 15.0 mph - 0.00 in Rain Light Rain
7:51 PM 69.1 °F - 61.0 °F 75% 29.95 in 8.0 mi Calm Calm - 0.00 in Rain Light Rain
8:51 PM 69.1 °F - 62.1 °F 78% 29.96 in 10.0 mi Calm Calm - 0.00 in   Mostly Cloudy
9:51 PM 66.9 °F - 62.1 °F 84% 29.97 in 10.0 mi SE 5.8 mph - 0.00 in Rain Light Rain
10:51 PM 66.2 °F - 60.8 °F 83% 29.97 in 10.0 mi SE 8.1 mph - N/A   Clear
11:51 PM 66.9 °F - 57.0 °F 70% 29.90 in 10.0 mi SSE 8.1 mph - N/A   Clear